This demonstration page uses our WeatherBlox Daily Observations layout. Learn more.

Left ArrowRight Arrow

34.74481, -87.66753

Hourly Observations for May 9, 2021

Temp ( °F °C ) Dew Point ( °F °C ) Humidity (%) Winds ( mph kmh ) Pressure ( in mb ) Visibility ( mi km ) Precip ( " mm )
12:53 am 00:53 Clear 67 19.4 49 9.4 53 53 S 9 15 29.92 1013 10 16 0.00 0.00
1:53 am 01:53 Clear 68 20 49 9.4 51 51 S 13 20 29.90 1013 10 16 0.00 0.00
2:53 am 02:53 Clear 67 19.4 52 11.1 59 59 SSW 12 19 29.89 1012 10 16 0.00 0.00
3:53 am 03:53 Clear 66 18.9 54 12.2 65 65 S 15 24 29.89 1012 10 16 0.00 0.00
4:53 am 04:53 Clear 66 18.9 55 12.8 68 68 SSW 16 26 29.88 1012 10 16 0.00 0.00
5:53 am 05:53 Sunny 65 18.3 56 13.3 73 73 SSW 13 20 29.88 1012 10 16 0.00 0.00
6:53 am 06:53 Sunny 66 18.9 57 13.9 73 73 S 15 24 29.89 1012 10 16 0.00 0.00
7:53 am 07:53 Sunny 69 20.6 59 15 70 70 S 16 26 29.90 1012 10 16 0.00 0.00
8:53 am 08:53 Cloudy 72 22.2 59 15 64 64 SW 21 33 29.91 1013 10 16 0.00 0.00
9:40 am 09:40 Mostly Cloudy 73 22.8 58 14.4 59 59 SW 20 31 29.90 1013 10 16 0.00 0.00
9:53 am 09:53 Mostly Cloudy 75 23.9 59 15 58 58 SW 20 31 29.90 1013 10 16 0.00 0.00
10:53 am 10:53 Partly Cloudy 78 25.6 57 13.9 48 48 SW 24 39 29.91 1013 10 16 0.00 0.00
11:53 am 11:53 Partly Cloudy 75 23.9 58 14.4 55 55 SW 14 22 29.90 1013 10 16 0.00 0.00
12:53 pm 12:53 Mostly Cloudy 73 22.8 60 15.6 64 64 S 14 22 29.86 1011 10 16 0.00 0.00
1:53 pm 13:53 Cloudy with Light Rain 74 23.3 61 16.1 64 64 S 13 20 29.85 1011 10 16 0.01 0.25
2:53 pm 14:53 Cloudy 74 23.3 63 17.2 69 69 SW 10 17 29.84 1011 10 16 0.00 0.00
5:53 pm 17:53 Cloudy 74 23.3 64 17.8 71 71 SW 10 17 29.83 1010 10 16 0.00 0.00
6:53 pm 18:53 Cloudy 73 22.8 64 17.8 74 74 SW 12 19 29.83 1010 10 16 0.00 0.00
7:53 pm 19:53 Cloudy with Rain 71 21.7 64 17.8 79 79 W 10 17 29.83 1010 5 8 0.05 1.27
8:15 pm 20:15 Cloudy with Heavy Rain 67 19.4 59 15 76 76 WSW 16 26 29.85 1011 2 3 0.23 5.84
8:25 pm 20:25 Cloudy with Heavy Rain 66 18.9 59 15 78 78 WSW 25 41 29.86 1011 3 4 0.33 8.38
8:33 pm 20:33 Mostly Cloudy with Rain 66 18.9 58 14.4 75 75 SW 20 31 29.85 1011 4 6 0.35 8.89
8:53 pm 20:53 Cloudy with Light Rain 66 18.9 58 14.4 75 75 W 7 11 29.85 1011 10 16 0.36 9.14
9:53 pm 21:53 Partly Cloudy 64 17.8 59 15 84 84 NNE 7 11 29.87 1012 10 16 0.08 2.03

Powered by AerisWeather